Regional Weather Roundup
Issued by NWS Jackson, KY

Home | Current Version | Previous Version | Graphics & Text | Print | Product List | Glossary On
Versions: 1 2 3 4 5 6 7 8 9 10 11 12 13 14 15 16 17 18 19 20 21 22 23 24 25 26 27 28 29 30 31 32 33 34 35 36 37 38 39 40 41 42 43 44 45 46 47 48 49 50
000
ASUS43 KJKL 312119
RWRJKL

EAST KENTUCKY HOURLY WEATHER ROUNDUP
NATIONAL WEATHER SERVICE JACKSON KY
400 PM EST SAT JAN 31 2015

NOTE: "FAIR" INDICATES FEW OR NO CLOUDS BELOW 12,000 FEET WITH
NO SIGNIFICANT WEATHER AND/OR OBSTRUCTIONS TO VISIBILITY.

* THESE REPORTS ARE NOT UNDER NWS QUALITY CONTROL AND MAY NOT
  REPORT WEATHER SUCH AS PRECIPITATION AND FOG.

KYZ079-080-083-085-087-088-110-112-115-119-120-312200
...EASTERN KENTUCKY...

CITY           SKY/WX    TMP DP  RH WIND       PRES   REMARKS
JACKSON        PTSUNNY   42  14  32 VRB3      30.28F
LONDON         PTSUNNY   43   8  23 SW6       30.30S
SOMERSET*      CLOUDY    43  14  31 W3        30.32F
MONTICELLO*    PTSUNNY   45  12  26 W6        30.34S
MIDDLESBORO*   MOSUNNY   45  15  30 S5        30.31S
HARLAN APT*    MOCLDY    43   5  21 W3        30.28S
BLACK MTN*       N/A     32  14  47 S3          N/A
PIKEVILLE APT* SUNNY     39  12  33 CALM      30.27F
BIG SANDY*     CLOUDY    40  17  39 SW5       30.29S
MOREHEAD APT*  MOCLDY    39  18  41 SW5       30.30F
ASHLAND*       SUNNY     39  18  41 SW5       30.28F
$$

KYZ035-036-041-042-044-050-067-078-099-312200
...CENTRAL KENTUCKY...

CITY           SKY/WX    TMP DP  RH WIND       PRES   REMARKS
MT STERLING*   PTSUNNY   41  19  42 SW6       30.30S
FLEMING/MASON* CLOUDY    37  21  52 SW6       30.30F WCI  32
DANVILLE*      CLOUDY    39  19  45 SW7       30.31F WCI  34
RICHMOND*      CLOUDY    41  14  33 SW8       30.29F
LEXINGTON      CLOUDY    41  18  39 SW8       30.29F
FRANKFORT      CLOUDY    41  16  36 SW7       30.28F
$$

KYZ091>093-OHZ055-061-077-WVZ005-015-034-035-042-312200
...SOUTHERN OHIO/WEST VIRGINIA...

CITY           SKY/WX    TMP DP  RH WIND       PRES   REMARKS
COVINGTON      CLOUDY    38  19  46 SW6       30.27F WCI  33
COLUMBUS       CLOUDY    33  21  61 SW10      30.26F WCI  25
DAYTON         CLOUDY    36  23  59 SW13      30.24F WCI  27
WILMINGTON     CLOUDY    34  20  56 SW14      30.25F WCI  25
HUNTINGTON     PTSUNNY   38  16  40 SW6       30.29F WCI  33
CHARLESTON     MOSUNNY   37  15  40 SW5       30.28F WCI  33
PINEVILLE*     SUNNY     40  15  35 MISG      30.30F
BECKLEY        SUNNY     34  10  37 W7        30.22S WCI  28
BLUEFIELD      SUNNY     38   6  26 W7        30.21F WCI  33
$$

VAZ002-007-008-TNZ017-027-036-066-071-312200
...SOUTHWEST VIRGINIA/EAST TENNESSEE...

CITY           SKY/WX    TMP DP  RH WIND       PRES   REMARKS
WISE*          PTSUNNY   41   7  24 SW8       30.24S
JONESVILLE*    MOCLDY    45   3  18 W5        30.32S
ABINGDON*      MOSUNNY   42  10  26 W7        30.27S
BRISTOL        PTSUNNY   43   9  24 SW8       30.30S
KNOXVILLE      PTSUNNY   45  13  27 VRB3      30.32F
OAK RIDGE      MOSUNNY   46   8  21 CALM      30.33F
CROSSVILLE     CLOUDY    44  10  25 CALM      30.28F
NASHVILLE      CLOUDY    46  18  32 NE5       30.31S
$$

...KEY TO REMARKS...
VSB - VISIBILITY IN MILES
WCI - WIND CHILL INDEX
HX  - HEAT INDEX

$$


USA.gov is the U.S. government's official web portal to all federal, state and local government web resources and services.